weather.gov     
National Weather Service

Terminal Aerodrome Forecast
NWS Homepage
This page is being discontinued on March 12, 2014.
The same data is available at this site. Please update your bookmarks.
Thank you, and we apologize for the inconvenience.
Please send an email to SR-SRH.Webmaster@noaa.gov with any concerns.


Current Version
Previous Version:    01  02  03  04  05  06  07  08  09  10  11  12  13  14  15  16  17  18  19  20  21  22  23  24  25  26  27  28  29  30  
   31  32  33  34  35  36  37  38  39  40  41  
[Printable]
872
FTUS45 KSLC 201731
TAF36U
TAF
K36U 201731Z 2018/2118 VRB04KT P6SM VCSH SCT030 BKN050
      TEMPO 2020/2024 4SM -SN BR BKN025
     FM210000 22008KT P6SM VCSH SCT030 BKN050
     FM210600 VRB04KT 4SM -RASN SCT010 BKN025
     FM211200 16014G22KT 3SM -RASN BKN020 BKN040=


872
FTUS45 KSLC 201731
TAF36U
TAF
K36U 201731Z 2018/2118 VRB04KT P6SM VCSH SCT030 BKN050
      TEMPO 2020/2024 4SM -SN BR BKN025
     FM210000 22008KT P6SM VCSH SCT030 BKN050
     FM210600 VRB04KT 4SM -RASN SCT010 BKN025
     FM211200 16014G22KT 3SM -RASN BKN020 BKN040=




U.S. Dept. of Commerce
NOAA National Weather Service
1325 East West Highway
Silver Spring, MD 20910
E-mail: w-nws.webmaster@noaa.gov
Page last modified: May 16, 2007
NATIONAL WEATHER SERVICE: for Safety, for Work, for Fun - FOR LIFE